Time,TemperatureF,DewpointF,PressureIn,WindDirection,WindDirectionDegrees,WindSpeedMPH,WindSpeedGustMPH,Humidity,HourlyPrecipIn,Conditions,Clouds,dailyrainin,SolarRadiationWatts/m^2,SoftwareType,DateUTC
2013-01-31 00:03:00,71.0,65.0,-100.00,South,191,11.0,-999.0,81,0.00,,,-99.99,0.000000,,2013-01-31 05:03:00,
2013-01-31 00:11:00,71.0,65.0,-100.00,South,191,11.0,-999.0,81,0.00,,,-99.99,0.000000,,2013-01-31 05:11:00,
2013-01-31 00:22:00,71.0,65.0,-100.00,South,191,11.0,-999.0,81,0.00,,,-99.99,0.000000,,2013-01-31 05:22:00,
2013-01-31 00:32:00,71.0,65.0,-100.00,South,191,11.0,-999.0,81,0.00,,,-99.99,0.000000,,2013-01-31 05:32:00,
2013-01-31 00:42:00,71.0,65.0,-100.00,South,187,12.0,-999.0,81,0.00,,,-99.99,0.000000,,2013-01-31 05:42:00,
2013-01-31 00:52:00,71.0,65.0,-100.00,South,187,12.0,-999.0,81,0.00,,,-99.99,0.000000,,2013-01-31 05:52:00,
2013-01-31 01:01:00,71.0,65.0,-100.00,South,187,12.0,-999.0,81,0.00,,,-99.99,0.000000,,2013-01-31 06:01:00,
2013-01-31 01:11:00,71.0,65.0,-100.00,South,187,12.0,-999.0,81,0.00,,,-99.99,0.000000,,2013-01-31 06:11:00,
2013-01-31 09:03:00,53.0,46.0,-100.00,NW,314,7.0,-999.0,75,0.00,,,-99.99,238.699997,,2013-01-31 14:03:00,
2013-01-31 09:11:00,53.0,44.0,-100.00,NW,321,7.0,-999.0,69,0.00,,,-99.99,311.000000,,2013-01-31 14:11:00,
2013-01-31 09:22:00,53.0,44.0,-100.00,NW,321,7.0,-999.0,69,0.00,,,-99.99,311.000000,,2013-01-31 14:22:00,
2013-01-31 09:32:00,53.0,43.0,-100.00,NW,313,7.0,-999.0,67,0.00,,,-99.99,355.600006,,2013-01-31 14:32:00,
2013-01-31 09:42:00,53.0,42.0,-100.00,NW,324,8.0,-999.0,65,0.00,,,-99.99,402.299988,,2013-01-31 14:42:00,
2013-01-31 09:52:00,53.0,42.0,-100.00,NW,324,8.0,-999.0,65,0.00,,,-99.99,402.299988,,2013-01-31 14:52:00,
2013-01-31 10:03:00,54.0,41.0,-100.00,NW,321,7.0,-999.0,60,0.00,,,-99.99,450.399994,,2013-01-31 15:03:00,
2013-01-31 10:12:00,54.0,38.0,-100.00,NW,321,6.0,-999.0,54,0.00,,,-99.99,498.200012,,2013-01-31 15:12:00,
2013-01-31 10:22:00,54.0,38.0,-100.00,NW,321,6.0,-999.0,54,0.00,,,-99.99,498.200012,,2013-01-31 15:22:00,
2013-01-31 10:32:00,54.0,38.0,-100.00,NW,321,6.0,-999.0,54,0.00,,,-99.99,498.200012,,2013-01-31 15:32:00,
2013-01-31 10:42:00,55.0,37.0,-100.00,NW,320,7.0,-999.0,49,0.00,,,-99.99,594.799988,,2013-01-31 15:42:00,
2013-01-31 10:52:00,55.0,37.0,-100.00,NW,320,7.0,-999.0,49,0.00,,,-99.99,594.799988,,2013-01-31 15:52:00,
2013-01-31 11:03:00,55.0,37.0,-100.00,NNW,328,6.0,-999.0,49,0.00,,,-99.99,631.900024,,2013-01-31 16:03:00,
2013-01-31 11:13:00,55.0,37.0,-100.00,NNW,328,6.0,-999.0,49,0.00,,,-99.99,631.900024,,2013-01-31 16:13:00,
2013-01-31 11:22:00,55.0,35.0,-100.00,WNW,301,7.0,-999.0,45,0.00,,,-99.99,663.500000,,2013-01-31 16:22:00,
2013-01-31 11:33:00,56.0,35.0,-100.00,NW,304,7.0,-999.0,45,0.00,,,-99.99,689.700012,,2013-01-31 16:33:00,
2013-01-31 11:42:00,56.0,34.0,-100.00,NW,304,7.0,-999.0,44,0.00,,,-99.99,709.000000,,2013-01-31 16:42:00,
2013-01-31 11:52:00,56.0,34.0,-100.00,NW,304,7.0,-999.0,44,0.00,,,-99.99,709.000000,,2013-01-31 16:52:00,
2013-01-31 12:03:00,56.0,34.0,-100.00,NW,307,7.0,-999.0,43,0.00,,,-99.99,728.000000,,2013-01-31 17:03:00,
2013-01-31 12:13:00,57.0,33.0,-100.00,NW,317,7.0,-999.0,40,0.00,,,-99.99,749.000000,,2013-01-31 17:13:00,
2013-01-31 12:23:00,57.0,33.0,-100.00,NW,317,7.0,-999.0,40,0.00,,,-99.99,749.000000,,2013-01-31 17:23:00,
2013-01-31 12:32:00,58.0,34.0,-100.00,NW,319,6.0,-999.0,41,0.00,,,-99.99,759.000000,,2013-01-31 17:32:00,
2013-01-31 12:43:00,58.0,34.0,-100.00,NW,319,6.0,-999.0,41,0.00,,,-99.99,759.000000,,2013-01-31 17:43:00,
2013-01-31 12:53:00,58.0,34.0,-100.00,NW,312,6.0,-999.0,41,0.00,,,-99.99,767.000000,,2013-01-31 17:53:00,
2013-01-31 13:03:00,58.0,33.0,-100.00,NW,316,7.0,-999.0,38,0.00,,,-99.99,768.000000,,2013-01-31 18:03:00,
2013-01-31 13:13:00,59.0,33.0,-100.00,NW,306,7.0,-999.0,37,0.00,,,-99.99,771.000000,,2013-01-31 18:13:00,
2013-01-31 13:22:00,59.0,33.0,-100.00,NW,306,7.0,-999.0,37,0.00,,,-99.99,771.000000,,2013-01-31 18:22:00,
2013-01-31 13:32:00,59.0,33.0,-100.00,NW,306,7.0,-999.0,37,0.00,,,-99.99,771.000000,,2013-01-31 18:32:00,
2013-01-31 13:43:00,60.0,33.0,-100.00,NW,313,5.0,-999.0,35,0.00,,,-99.99,760.000000,,2013-01-31 18:43:00,
2013-01-31 13:52:00,60.0,33.0,-100.00,NW,308,6.0,-999.0,35,0.00,,,-99.99,753.000000,,2013-01-31 18:52:00,
2013-01-31 14:02:00,60.0,30.0,-100.00,WNW,292,6.0,-999.0,30,0.00,,,-99.99,742.000000,,2013-01-31 19:02:00,
2013-01-31 14:12:00,60.0,27.0,-100.00,WNW,288,9.0,-999.0,28,0.00,,,-99.99,722.000000,,2013-01-31 19:12:00,
2013-01-31 14:22:00,60.0,27.0,-100.00,WNW,288,9.0,-999.0,28,0.00,,,-99.99,722.000000,,2013-01-31 19:22:00,
2013-01-31 14:33:00,61.0,27.0,-100.00,NW,313,7.0,-999.0,27,0.00,,,-99.99,697.799988,,2013-01-31 19:33:00,
2013-01-31 14:42:00,61.0,27.0,-100.00,NW,315,6.0,-999.0,26,0.00,,,-99.99,671.700012,,2013-01-31 19:42:00,
2013-01-31 14:52:00,61.0,27.0,-100.00,NW,315,6.0,-999.0,26,0.00,,,-99.99,671.700012,,2013-01-31 19:52:00,
2013-01-31 15:02:00,62.0,26.0,-100.00,WNW,291,6.0,-999.0,25,0.00,,,-99.99,642.299988,,2013-01-31 20:02:00,
2013-01-31 15:12:00,62.0,26.0,-100.00,West,281,5.0,-999.0,24,0.00,,,-99.99,608.700012,,2013-01-31 20:12:00,
2013-01-31 15:22:00,62.0,26.0,-100.00,West,281,5.0,-999.0,24,0.00,,,-99.99,608.700012,,2013-01-31 20:22:00,
2013-01-31 15:32:00,63.0,24.0,-100.00,NW,318,6.0,-999.0,22,0.00,,,-99.99,571.299988,,2013-01-31 20:32:00,
2013-01-31 15:42:00,63.0,24.0,-100.00,NW,304,6.0,-999.0,22,0.00,,,-99.99,530.599976,,2013-01-31 20:42:00,
2013-01-31 15:52:00,63.0,24.0,-100.00,NW,304,6.0,-999.0,22,0.00,,,-99.99,530.599976,,2013-01-31 20:52:00,
2013-01-31 16:02:00,63.0,25.0,-100.00,NW,316,6.0,-999.0,23,0.00,,,-99.99,484.000000,,2013-01-31 21:02:00,
2013-01-31 16:12:00,63.0,25.0,-100.00,WNW,288,6.0,-999.0,24,0.00,,,-99.99,437.200012,,2013-01-31 21:12:00,
2013-01-31 16:22:00,63.0,25.0,-100.00,WNW,288,6.0,-999.0,24,0.00,,,-99.99,437.200012,,2013-01-31 21:22:00,
2013-01-31 16:32:00,63.0,25.0,-100.00,WNW,300,4.0,-999.0,23,0.00,,,-99.99,287.399994,,2013-01-31 21:32:00,
2013-01-31 16:42:00,62.0,25.0,-100.00,NW,318,5.0,-999.0,23,0.00,,,-99.99,200.800003,,2013-01-31 21:42:00,
2013-01-31 16:52:00,62.0,25.0,-100.00,NW,318,5.0,-999.0,23,0.00,,,-99.99,200.800003,,2013-01-31 21:52:00,
2013-01-31 17:03:00,62.0,24.0,-100.00,WNW,294,6.0,-999.0,23,0.00,,,-99.99,208.899994,,2013-01-31 22:03:00,
2013-01-31 17:11:00,62.0,24.0,-100.00,WNW,294,6.0,-999.0,23,0.00,,,-99.99,208.899994,,2013-01-31 22:11:00,
2013-01-31 17:22:00,62.0,24.0,-100.00,WNW,297,5.0,-999.0,23,0.00,,,-99.99,164.800003,,2013-01-31 22:22:00,
2013-01-31 17:33:00,61.0,24.0,-100.00,WNW,303,4.0,-999.0,23,0.00,,,-99.99,172.899994,,2013-01-31 22:33:00,
2013-01-31 17:42:00,61.0,24.0,-100.00,WNW,296,5.0,-999.0,24,0.00,,,-99.99,118.800003,,2013-01-31 22:42:00,
2013-01-31 17:52:00,61.0,24.0,-100.00,WNW,296,5.0,-999.0,24,0.00,,,-99.99,118.800003,,2013-01-31 22:52:00,
2013-01-31 18:03:00,60.0,25.0,-100.00,NW,306,4.0,-999.0,26,0.00,,,-99.99,64.300003,,2013-01-31 23:03:00,
2013-01-31 18:12:00,58.0,26.0,-100.00,WNW,293,3.0,-999.0,29,0.00,,,-99.99,9.800000,,2013-01-31 23:12:00,
2013-01-31 18:22:00,58.0,26.0,-100.00,WNW,293,3.0,-999.0,29,0.00,,,-99.99,9.800000,,2013-01-31 23:22:00,
2013-01-31 18:32:00,58.0,26.0,-100.00,WNW,293,3.0,-999.0,29,0.00,,,-99.99,9.800000,,2013-01-31 23:32:00,
2013-01-31 18:42:00,55.0,27.0,-100.00,WNW,299,3.0,-999.0,33,0.00,,,-99.99,0.200000,,2013-01-31 23:42:00,
2013-01-31 18:52:00,55.0,27.0,-100.00,WNW,299,3.0,-999.0,33,0.00,,,-99.99,0.200000,,2013-01-31 23:52:00,
2013-01-31 19:01:00,52.0,28.0,-100.00,NNW,330,2.0,-999.0,39,0.00,,,-99.99,0.000000,,2013-02-01 00:01:00,
2013-01-31 19:11:00,50.0,30.0,-100.00,NW,322,2.0,-999.0,45,0.00,,,-99.99,0.000000,,2013-02-01 00:11:00,
2013-01-31 19:22:00,50.0,30.0,-100.00,NW,322,2.0,-999.0,45,0.00,,,-99.99,0.000000,,2013-02-01 00:22:00,
2013-01-31 19:32:00,49.0,31.0,-100.00,North,354,2.0,-999.0,48,0.00,,,-99.99,0.000000,,2013-02-01 00:32:00,
2013-01-31 19:42:00,48.0,32.0,-100.00,North,351,2.0,-999.0,54,0.00,,,-99.99,0.000000,,2013-02-01 00:42:00,
2013-01-31 19:52:00,48.0,32.0,-100.00,North,351,2.0,-999.0,54,0.00,,,-99.99,0.000000,,2013-02-01 00:52:00,
2013-01-31 20:01:00,47.0,33.0,-100.00,NNW,344,1.0,-999.0,57,0.00,,,-99.99,0.000000,,2013-02-01 01:01:00,
2013-01-31 20:11:00,47.0,33.0,-100.00,NNW,344,1.0,-999.0,57,0.00,,,-99.99,0.000000,,2013-02-01 01:11:00,
2013-01-31 20:21:00,47.0,31.0,-100.00,NNW,339,2.0,-999.0,53,0.00,,,-99.99,0.000000,,2013-02-01 01:21:00,
2013-01-31 20:32:00,47.0,30.0,-100.00,NNW,340,2.0,-999.0,51,0.00,,,-99.99,0.000000,,2013-02-01 01:32:00,
2013-01-31 20:42:00,47.0,30.0,-100.00,NNW,340,2.0,-999.0,51,0.00,,,-99.99,0.000000,,2013-02-01 01:42:00,
2013-01-31 20:52:00,47.0,31.0,-100.00,NNW,342,3.0,-999.0,53,0.00,,,-99.99,0.000000,,2013-02-01 01:52:00,
2013-01-31 21:02:00,47.0,31.0,-100.00,North,351,2.0,-999.0,53,0.00,,,-99.99,0.000000,,2013-02-01 02:02:00,
2013-01-31 21:11:00,45.0,31.0,-100.00,NNW,346,2.0,-999.0,58,0.00,,,-99.99,0.000000,,2013-02-01 02:11:00,
2013-01-31 21:21:00,45.0,31.0,-100.00,NNW,346,2.0,-999.0,58,0.00,,,-99.99,0.000000,,2013-02-01 02:21:00,
2013-01-31 21:32:00,46.0,31.0,-100.00,NNW,341,4.0,-999.0,55,0.00,,,-99.99,0.000000,,2013-02-01 02:32:00,
2013-01-31 21:42:00,48.0,30.0,-100.00,NNW,332,4.0,-999.0,49,0.00,,,-99.99,0.000000,,2013-02-01 02:42:00,
2013-01-31 21:52:00,48.0,30.0,-100.00,NNW,332,4.0,-999.0,49,0.00,,,-99.99,0.000000,,2013-02-01 02:52:00,
2013-01-31 22:02:00,49.0,30.0,-100.00,NNW,334,4.0,-999.0,46,0.00,,,-99.99,0.000000,,2013-02-01 03:02:00,
2013-01-31 22:12:00,48.0,30.0,-100.00,NNW,328,3.0,-999.0,48,0.00,,,-99.99,0.000000,,2013-02-01 03:12:00,
2013-01-31 22:21:00,48.0,30.0,-100.00,NNW,328,3.0,-999.0,48,0.00,,,-99.99,0.000000,,2013-02-01 03:21:00,
2013-01-31 22:32:00,47.0,29.0,-100.00,NW,320,3.0,-999.0,49,0.00,,,-99.99,0.000000,,2013-02-01 03:32:00,
2013-01-31 22:42:00,47.0,29.0,-100.00,NW,325,3.0,-999.0,50,0.00,,,-99.99,0.000000,,2013-02-01 03:42:00,
2013-01-31 22:52:00,47.0,29.0,-100.00,NW,325,3.0,-999.0,50,0.00,,,-99.99,0.000000,,2013-02-01 03:52:00,
2013-01-31 23:02:00,47.0,30.0,-100.00,NW,326,4.0,-999.0,51,0.00,,,-99.99,0.000000,,2013-02-01 04:02:00,
2013-01-31 23:11:00,46.0,29.0,-100.00,NW,324,3.0,-999.0,52,0.00,,,-99.99,0.000000,,2013-02-01 04:11:00,
2013-01-31 23:21:00,46.0,29.0,-100.00,NW,324,3.0,-999.0,52,0.00,,,-99.99,0.000000,,2013-02-01 04:21:00,
2013-01-31 23:32:00,45.0,29.0,-100.00,NW,312,3.0,-999.0,53,0.00,,,-99.99,0.000000,,2013-02-01 04:32:00,
2013-01-31 23:41:00,45.0,30.0,-100.00,NW,311,2.0,-999.0,54,0.00,,,-99.99,0.000000,,2013-02-01 04:41:00,
2013-01-31 23:52:00,45.0,30.0,-100.00,NW,311,2.0,-999.0,54,0.00,,,-99.99,0.000000,,2013-02-01 04:52:00,